Regional Weather Roundup
Issued by NWS State College, PA

Home | Current Version | Previous Version | Graphics & Text | Print | Product List | Glossary Off
Versions: 1 2 3 4 5 6 7 8 9 10 11 12 13 14 15 16 17 18 19 20 21 22 23 24 25 26 27 28 29 30 31 32 33 34 35 36 37 38 39 40 41 42 43 44 45 46 47 48 49 50

000
ASUS41 KCTP 300203
RWRCTP

REGIONAL WEATHER ROUNDUP
NATIONAL WEATHER SERVICE STATE COLLEGE PA
1000 PM EDT SUN MAR 29 2015

Note: "fair" indicates few or no clouds below 12,000 feet with no
significant weather and/or obstructions to visibility.

* = STATION THAT DOES NOT REPORT PRECIPITATION /E.G. RAIN...SNOW...ETC/
    THUNDER OR FOG.

PAZ002>004-007>009-013>016-020>023-029>032-300300-
WESTERN PENNSYLVANIA

CITY           SKY/WX    TMP DP  RH WIND       PRES   REMARKS
ERIE           CLOUDY    39  21  48 S16G28    29.90F
MEADVILLE      CLOUDY    36  20  52 S9G20     29.91F
FRANKLIN*      CLOUDY    34  21  60 S10       29.95F
NEW CASTLE     FAIR      41  12  30 SE5       29.94F
BEAVER COUNTY  NOT AVBL
BUTLER*        CLOUDY    39   9  28 S6        29.99F
PITTSBURGH INT CLOUDY    42   8  24 S6        29.96F
PITTSBURGH     CLOUDY    41   4  21 S8        29.97S
INDIANA*       CLOUDY    39  10  30 SW6       30.04R
LATROBE        PTCLDY    41   9  26 CALM      30.01R
WASHINGTON CO* CLOUDY    43   9  24 S6        29.99F
$$

PAZ004>006-010>012-017>019-024>028-033>037-041-042-045-046-049>053-300300-
CENTRAL PENNSYLVANIA

CITY           SKY/WX    TMP DP  RH WIND       PRES   REMARKS
BRADFORD       CLOUDY    35   7  31 VRB7G17   29.92R
DUBOIS         CLOUDY    38   8  29 SW8       29.96R
CLEARFIELD     CLOUDY    38   9  30 SW6       29.98F
JOHNSTOWN      CLOUDY    38   8  29 S13       29.97S
ALTOONA        CLOUDY    38   7  27 S12       30.01F
STATE COLLEGE  NOT AVBL
WILLIAMSPORT   CLOUDY    41   7  24 S16G24    30.03F
SELINSGROVE    MOCLDY    39  13  34 VRB6      30.07F
FT INDIANTOWN  PTCLDY    30  14  50 N1        30.11F
CAPITAL CITY   PTCLDY    39   8  27 S9        30.11F
HARRISBURG     MOCLDY    40  12  32 S12       30.11F
YORK           MOCLDY    37   8  30 S5        30.12F
$$

PAZ038>040-043-044-047-048-054-055-060>062-067>071-300300-
EASTERN PENNSYLVANIA

CITY           SKY/WX    TMP DP  RH WIND       PRES   REMARKS
SCRANTON       MOCLDY    37   6  27 SW8       30.05F
MOUNT POCONO   PTCLDY    31   7  36 SW8       30.04S
ALLENTOWN      PTCLDY    38  11  32 S9        30.13F
QUAKERTOWN*    PTCLDY    34  10  37 CALM      30.15S
READING        MOCLDY    35  11  36 S6        30.13F
LANCASTER      PTCLDY    36  10  34 S7        30.13F
COATESVILLE    PTCLDY    34  16  47 SW3       30.16F
POTTSTOWN      PTCLDY    35  11  36 S3        30.16F
BLUE BELL      CLEAR     36  16  44 SW5       30.16S
DOYLESTOWN     PTCLDY    34  11  38 S3        30.15R
WILLOW GROVE   NOT AVBL
NORTH PHILA    CLEAR     40  11  30 SW9       30.19S
PHILADELPHIA   FAIR      39  13  34 S9        30.19S
$$



USA.gov is the U.S. government's official web portal to all federal, state and local government web resources and services.